Location: *
(51.4660°N, 0.3360°W)
Time: 10:31:17
(UTC+00:00)

Cosmos 1140 Rocket - Pass Details

Date: 19 September 2019
Orbit: 745 x 767 km, 74.1° (Epoch: 18 October)

Event Time Altitude Azimuth Distance (km) Brightness Sun altitude
Rises 19:36:32 0° 335° (NNW) 3,228 7.5 -14.4°
Reaches altitude 10° 19:38:56 10° 337° (NNW) 2,295 6.6 -14.7°
Maximum altitude 19:44:08 81° 65° (ENE) 769 3.4 -15.5°
Enters shadow 19:47:56 19° 151° (SSE) 1,747 4.9 -16.0°
